Date String (YYYY-MM-DD hh:mm:ss) UTC,Instrument flags,absolute air pressure of the measurement (hPa),sample flow rate (lpm),inlet stack bypass flow (lpm),air temperature of the measurement (°C),ambient temperature measured by the external sensor (°C),aerosol sample conditioner tube jacket temperature (°C),OPC LED temperature (°C),internal box temperature (°C),relative humidity of the measurement (%),span deviation,mass concentration of particles derived from Lorenz-Mie calculation of OPC scattering (μg/m³),mass concentration of particles derived from Lorenz-Mie calculation of OPC scattering (μg/m³),mass concentration of particles derived from Lorenz-Mie calculation of OPC scattering (μg/m³)
DateTimeUTC,F1_M11,P_M11,Q1_M11,Q2_M11,T1_M11,T2_M11,T3_M11,T4_M11,T5_M11,U1_M11,ZSPAN_M11,X0_M11,X2_M11,X1_M11
2023-06-01 22:00:00,SystemResetWarning,0824.8,5.01,000.00,029.6,026.0,000.0,037.9,031.0,23.8,0000.0,0007.98,0004.03,0003.21
2023-06-01 22:01:00,SystemResetWarning,0824.8,5.01,000.00,029.6,025.8,000.0,037.8,030.9,23.8,0000.0,0008.09,0004.07,0003.24
2023-06-01 22:02:00,SystemResetWarning,0824.8,5.00,000.00,029.5,026.0,000.0,037.8,030.9,24.1,0000.0,0008.08,0004.05,0003.24
2023-06-01 22:03:00,SystemResetWarning,0824.8,5.00,000.00,029.5,026.3,000.0,037.8,030.9,24.7,0000.0,0007.74,0004.02,0003.25
2023-06-01 22:04:00,SystemResetWarning,0824.8,5.00,000.00,029.4,026.6,000.0,037.8,031.0,25.1,0000.0,0007.74,0004.06,0003.26
2023-06-01 22:05:00,SystemResetWarning,0824.8,5.00,000.00,029.4,027.0,000.0,037.8,031.0,26.3,0000.0,0007.85,0004.11,0003.30
2023-06-01 22:06:00,SystemResetWarning,0824.7,4.99,000.00,029.4,027.2,000.0,037.8,031.1,26.7,0000.0,0008.10,0004.17,0003.35
2023-06-01 22:07:00,SystemResetWarning,0824.8,5.00,000.00,029.5,027.4,000.0,037.8,031.1,26.7,0000.0,0008.47,0004.21,0003.40
2023-06-01 22:08:00,SystemResetWarning,0824.8,4.99,000.00,029.5,027.6,000.0,037.8,031.1,25.6,0000.0,0008.62,0004.22,0003.42
2023-06-01 22:09:00,SystemResetWarning,0824.8,5.00,000.00,029.5,027.7,000.0,037.8,031.1,24.8,0000.0,0008.74,0004.26,0003.44
2023-06-01 22:10:00,SystemResetWarning,0824.8,5.00,000.00,029.5,027.9,000.0,037.8,031.2,25.2,0000.0,0009.22,0004.30,0003.47
2023-06-01 22:11:00,SystemResetWarning,0824.8,5.00,000.00,029.5,028.0,000.0,037.8,031.2,24.7,0000.0,0009.19,0004.34,0003.50
2023-06-01 22:12:00,SystemResetWarning,0824.8,5.01,000.00,029.5,028.1,000.0,037.9,031.2,25.4,0000.0,0010.19,0004.39,0003.53
2023-06-01 22:13:00,SystemResetWarning,0824.7,5.00,000.00,029.6,028.1,000.0,037.9,031.3,25.6,0000.0,0010.46,0004.46,0003.56
2023-06-01 22:14:00,SystemResetWarning,0824.7,5.00,000.00,029.6,028.2,000.0,037.9,031.3,25.3,0000.0,0010.66,0004.53,0003.58
2023-06-01 22:15:00,SystemResetWarning,0824.7,4.99,000.00,029.6,028.3,000.0,037.9,031.3,25.3,0000.0,0010.75,0004.57,0003.61
2023-06-01 22:16:00,SystemResetWarning,0824.7,5.00,000.00,029.6,028.3,000.0,037.9,031.3,25.1,0000.0,0010.70,0004.55,0003.62
2023-06-01 22:17:00,SystemResetWarning,0824.7,5.00,000.00,029.6,028.4,000.0,037.9,031.4,24.9,0000.0,0010.64,0004.57,0003.63
2023-06-01 22:18:00,SystemResetWarning,0824.7,5.00,000.00,029.7,028.4,000.0,037.9,031.4,25.3,0000.0,0010.61,0004.60,0003.63
2023-06-01 22:19:00,SystemResetWarning,0824.7,5.00,000.00,029.7,028.4,000.0,038.0,031.4,25.7,0000.0,0010.40,0004.62,0003.65
2023-06-01 22:20:00,SystemResetWarning,0824.8,5.01,000.00,029.7,028.5,000.0,038.0,031.4,26.1,0000.0,0010.53,0004.65,0003.68
2023-06-01 22:21:00,SystemResetWarning,0824.7,4.98,000.00,029.7,027.3,000.0,037.9,031.3,25.2,0000.0,0010.27,0004.69,0003.69
2023-06-01 22:22:00,SystemResetWarning,0824.7,5.01,000.00,029.7,026.0,000.0,037.9,031.1,24.9,0000.0,0010.51,0004.73,0003.70
2023-06-01 22:23:00,SystemResetWarning,0824.7,5.01,000.00,029.6,025.9,000.0,037.8,031.0,25.4,0000.0,0009.93,0004.72,0003.70
2023-06-01 22:24:00,SystemResetWarning,0824.7,5.00,000.00,029.5,026.1,000.0,037.8,031.0,25.7,0000.0,0009.59,0004.76,0003.70
2023-06-01 22:25:00,SystemResetWarning,0824.7,5.00,000.00,029.5,026.4,000.0,037.8,031.0,26.0,0000.0,0009.52,0004.75,0003.70
2023-06-01 22:26:00,SystemResetWarning,0824.7,5.00,000.00,029.5,026.7,000.0,037.8,031.0,25.0,0000.0,0009.55,0004.77,0003.69
2023-06-01 22:27:00,SystemResetWarning,0824.7,5.00,000.00,029.5,027.0,000.0,037.8,031.1,25.2,0000.0,0009.78,0004.79,0003.69
2023-06-01 22:28:00,SystemResetWarning,0824.7,5.00,000.00,029.5,027.2,000.0,037.8,031.1,24.9,0000.0,0009.80,0004.76,0003.68
2023-06-01 22:29:00,SystemResetWarning,0824.7,4.99,000.00,029.5,027.4,000.0,037.8,031.1,24.9,0000.0,0009.60,0004.74,0003.69
2023-06-01 22:30:00,SystemResetWarning,0824.7,5.00,000.00,029.5,027.6,000.0,037.8,031.1,25.5,0000.0,0009.49,0004.77,0003.69
2023-06-01 22:31:00,SystemResetWarning,0824.7,4.99,000.00,029.5,027.7,000.0,037.8,031.2,26.1,0000.0,0009.43,0004.80,0003.69
2023-06-01 22:32:00,SystemResetWarning,0824.7,5.00,000.00,029.5,027.8,000.0,037.8,031.2,26.0,0000.0,0009.80,0004.83,0003.70
2023-06-01 22:33:00,SystemResetWarning,0824.6,5.01,000.00,029.5,027.9,000.0,037.8,031.2,25.4,0000.0,0009.95,0004.89,0003.72
2023-06-01 22:34:00,SystemResetWarning,0824.5,5.01,000.00,029.5,028.0,000.0,037.9,031.2,25.6,0000.0,0009.80,0004.89,0003.73
2023-06-01 22:35:00,SystemResetWarning,0824.5,5.01,000.00,029.5,028.0,000.0,037.9,031.2,25.8,0000.0,0009.76,0004.87,0003.75
2023-06-01 22:36:00,SystemResetWarning,0824.4,4.99,000.00,029.5,028.1,000.0,037.9,031.2,26.5,0000.0,0009.85,0004.91,0003.78
2023-06-01 22:37:00,SystemResetWarning,0824.4,5.00,000.00,029.6,028.1,000.0,037.9,031.3,26.8,0000.0,0010.04,0004.95,0003.80
2023-06-01 22:38:00,SystemResetWarning,0824.4,5.00,000.00,029.6,028.2,000.0,037.9,031.3,26.7,0000.0,0009.83,0004.94,0003.81
2023-06-01 22:39:00,SystemResetWarning,0824.4,5.00,000.00,029.6,028.2,000.0,037.9,031.3,25.9,0000.0,0009.71,0004.93,0003.81
2023-06-01 22:40:00,SystemResetWarning,0824.4,5.00,000.00,029.6,028.3,000.0,037.9,031.3,25.1,0000.0,0009.84,0004.94,0003.82
2023-06-01 22:41:00,SystemResetWarning,0824.4,5.00,000.00,029.6,028.3,000.0,037.9,031.3,25.6,0000.0,0010.05,0004.95,0003.82
2023-06-01 22:42:00,SystemResetWarning,0824.5,5.00,000.00,029.6,028.3,000.0,038.0,031.3,26.2,0000.0,0010.00,0004.92,0003.82
2023-06-01 22:43:00,SystemResetWarning,0824.4,5.00,000.00,029.7,027.8,000.0,038.0,031.3,26.1,0000.0,0009.73,0004.88,0003.80
2023-06-01 22:44:00,SystemResetWarning,0824.4,5.00,000.00,029.6,026.2,000.0,037.9,031.1,26.4,0000.0,0009.34,0004.80,0003.79
2023-06-01 22:45:00,SystemResetWarning,0824.5,5.00,000.00,029.6,025.7,000.0,037.8,031.0,24.9,0000.0,0009.56,0004.80,0003.76
2023-06-01 22:46:00,SystemResetWarning,0824.4,5.00,000.00,029.5,025.8,000.0,037.8,030.9,25.5,0000.0,0009.89,0004.76,0003.73
2023-06-01 22:47:00,SystemResetWarning,0824.4,5.01,000.00,029.4,026.1,000.0,037.8,030.9,25.5,0000.0,0009.77,0004.70,0003.69
2023-06-01 22:48:00,SystemResetWarning,0824.5,5.00,000.00,029.4,026.5,000.0,037.8,030.9,24.7,0000.0,0009.68,0004.65,0003.66
2023-06-01 22:49:00,SystemResetWarning,0824.5,5.00,000.00,029.4,026.8,000.0,037.8,031.0,24.5,0000.0,0009.65,0004.61,0003.62
2023-06-01 22:50:00,SystemResetWarning,0824.5,5.00,000.00,029.4,027.0,000.0,037.8,031.0,25.2,0000.0,0009.71,0004.60,0003.60
2023-06-01 22:51:00,SystemResetWarning,0824.5,5.00,000.00,029.4,027.3,000.0,037.8,031.0,25.8,0000.0,0009.57,0004.55,0003.56
2023-06-01 22:52:00,SystemResetWarning,0824.6,5.00,000.00,029.4,027.5,000.0,037.8,031.1,25.7,0000.0,0009.31,0004.48,0003.53
2023-06-01 22:53:00,SystemResetWarning,0824.6,4.99,000.00,029.4,027.6,000.0,037.8,031.1,25.6,0000.0,0009.39,0004.47,0003.51
2023-06-01 22:54:00,SystemResetWarning,0824.7,5.00,000.00,029.4,027.7,000.0,037.8,031.1,25.3,0000.0,0009.21,0004.44,0003.50
2023-06-01 22:55:00,SystemResetWarning,0824.7,5.00,000.00,029.5,027.8,000.0,037.8,031.1,24.8,0000.0,0009.25,0004.42,0003.48
2023-06-01 22:56:00,SystemResetWarning,0824.7,5.01,000.00,029.5,027.9,000.0,037.8,031.2,24.7,0000.0,0009.95,0004.42,0003.47
2023-06-01 22:57:00,SystemResetWarning,0824.7,5.00,000.00,029.5,028.0,000.0,037.8,031.2,24.5,0000.0,0009.75,0004.40,0003.47
2023-06-01 22:58:00,SystemResetWarning,0824.7,5.01,000.00,029.5,028.0,000.0,037.8,031.2,24.7,0000.0,0009.99,0004.40,0003.48
2023-06-01 22:59:00,SystemResetWarning,0824.7,5.00,000.00,029.5,028.1,000.0,037.8,031.2,25.5,0000.0,0010.78,0004.41,0003.48
